Simultaneous Nadir Overpasses (SNOs) Predictions

Prediction of SNOs between METOP-B and TERRA Satellite Orbit:

Table of predicted SNOs for the next 14.0 days since TLE Epoch: 10/15/2022
Index Date (METOP-B) Time (METOP-B) Lat,Lon (METOP-B) SZA (METOP-B ) Date (TERRA) Time (TERRA) Lat,Lon (TERRA) SZA (TERRA ) Distance(km) Time Diff (sec)
1 10/15/2022 18:00:25 -81.04, 127.59 88.11 10/15/2022 18:00:58 -81.03, 127.44 88.12 2.81 33
2 10/15/2022 18:51:04 81.06, -64.53 91.98 10/15/2022 18:50:23 81.05, -64.59 91.95 1.22 41
3 10/18/2022 11:53:27 -81.03,-140.92 87.13 10/18/2022 11:53:50 -81.02,-140.85 87.11 1.39 23
4 10/18/2022 12:44:05 81.06, 27.29 93.01 10/18/2022 12:43:14 81.07, 27.45 93.01 3.05 51
5 10/21/2022 05:46:28 -81.04, -48.76 86.08 10/21/2022 05:46:42 -81.03, -48.94 86.10 3.13 14
6 10/21/2022 06:37:07 81.06, 119.05 94.00 10/21/2022 06:36:07 81.05, 118.96 93.96 1.78 60
7 10/23/2022 23:39:30 -81.04, 42.97 85.11 10/23/2022 23:39:34 -81.03, 42.81 85.13 2.91 4
8 10/24/2022 00:30:08 81.07,-148.87 95.02 10/24/2022 00:28:58 81.07,-148.98 94.97 2.04 70
9 10/26/2022 16:41:53 81.00, -33.58 95.70 10/26/2022 16:43:03 81.00, -33.57 95.73 0.51 70



Historial Predications of SNOs between METOP-B and TERRA
